Погода в Мукахе

Малайзия     2°54′02″N   112°05′08″E
темп.,
°C
ветер,
м/с
пор.,
м/с
влажн.,
%
обл.,
%
осадки,
мм/ч
давл.,
гПа
погр.,
м
20 января, чт
чт2023:00+27с5577100 0.1 1009785
02:00+27ссв457897 1.6 1008573
05:00+26с458292 2.8 1007421
08:00+26ссв3383100 8.4 1009280
11:00+26ссв458289 5.7 1010365
14:00+26с458193 9.4 1008455
17:00+26ссз5579100 3.6 1007518
20:00+26ссз4480100 6.6 1009388
21 января, пт
пт2123:00+27ссз3377100 1.6 1011491
02:00+26сз1280100 6.6 1009119
05:00+26ююз2280100 2.8 1009290
08:00+25ююз4386100 2.9 1011299
11:00+26ююз2382100 0.6 1011348
14:00+26зсз1277100 4.3 1010232
17:00+27сз1275100 0.4 1008451
20:00+27в1176100 0.8 1010442
22 января, сб
сб2223:00+26юв2282100 0.8 1011187
02:00+25юв2184100 2.0 1010222
05:00+25ююв228598 0.6 1009253
08:00+25ююв338692 0.8 1011279
11:00+26ююв128154 0.0 1011307
14:00+27ссз337723 0.0 1008246
17:00+27сз44755 0.0 1006472
20:00+27сз227599 0.0 1009522
23 января, вс
вс2323:00+27з1175100 0.0 1009454
02:00+27всв1177100 0.0 1008431
05:00+26ююв2181100 0.0 1008342
08:00+26юв2285100 0.1 1010234
11:00+26ссв118384 0.0 1010243
14:00+27ссз437992 0.1 1007483
17:00+28ссз4476100 0.0 1006670
20:00+28ссз3375100 0.0 1008622
24 января, пн
пн2423:00+28с4475100 0.0 1009633
02:00+27ссв337681 0.0 1008662
05:00+27ссв337773 0.0 1007660
08:00+27в117846 0.3 1009223
11:00+27ссз12784 0.2 1009405
14:00+27ссз44765 0.2 1007544
17:00+28сз557530 0.0 1006782
20:00+28ссз5577100 0.0 1008776